[[{"header":{"parameterUnit":"m.s-1","parameterCategory":1,"la1":30.2991,"la2":30.254,"lo1":-89.0895,"lo2":-89.0444,"dy":0.0017,"dx":0.0017,"nx":28,"ny":28,"refTime":"2024-03-14T21:00:00:Z","depth":0,"parameterNumber":2,"parameterNumberName":"U-component_of_WINDS"},"data":[0,0,0,0,0,0,0,0,0,0,0,0,0,0,0,0,0,0,0,0,0,0,0,0,0,0,0,0,0,0,0,0,0,0,0,0,0,0,0,0,0,0,0,0,0,0,0,0,0,0,0,0,0,0,0,0,0,0,-5.6572,-5.6573,0,-5.666,-5.6661,-5.6662,-5.6598,-5.6595,-5.6592,-5.6589,-5.6676,-5.668,-5.6685,0,0,0,0,0,0,0,0,0,0,0,0,0,-5.6346,-5.6351,-5.6572,-5.6573,-5.6574,-5.666,-5.6661,-5.6662,-5.6598,-5.6595,-5.6591,-5.6588,-5.6674,-5.668,-5.6686,0,0,0,0,0,0,0,0,0,0,0,0,0,-5.644,-5.6352,-5.6572,-5.6553,-5.6552,-5.666,-5.6661,-5.6663,-5.6599,-5.6595,-5.659,-5.6586,-5.6672,-5.6679,-5.6686,-5.6817,0,0,-5.6709,-5.6712,0,0,0,0,0,0,0,0,-5.6435,-5.6449,-5.6555,-5.6554,-5.6554,-5.6614,-5.6613,-5.6714,-5.66,-5.6581,-5.6589,-5.6584,-5.6658,-5.6666,-5.6692,-5.6821,-5.6824,-5.671,-5.6714,-5.6717,-5.6719,0,0,0,0,0,0,0,-5.6429,-5.6445,-5.6607,-5.6556,-5.6556,-5.6539,-5.6548,-5.6632,-5.6642,-5.6582,-5.6578,-5.6589,-5.6657,-5.6685,-5.6694,-5.6826,-5.6709,-5.6716,-5.6721,-5.6723,-5.7065,-5.707,0,0,0,0,0,0,-5.6424,-5.644,-5.6604,-5.6609,-5.6483,-5.6547,-5.6556,-5.6599,-5.6641,-5.6643,-5.6593,-5.6586,-5.6675,-5.6685,-5.6696,-5.6851,-5.6717,-5.6724,-5.6728,-5.7061,-5.7066,-5.7072,0,0,0,0,0,0,-5.642,-5.644,-5.66,-5.6523,-5.6543,-5.6555,-5.6603,-5.6603,-5.663,-5.6649,-5.665,-5.662,-5.6672,-5.6686,-5.6787,-5.6853,-5.6728,-5.6734,-5.7055,-5.7063,-5.7069,-5.7161,0,0,0,0,0,0,-5.6414,-5.6438,-5.6488,-5.6525,-5.6547,-5.6691,-5.6607,-5.6607,-5.6644,-5.6636,-5.6675,-5.6677,-5.6669,-5.6777,-5.6795,-5.6861,-5.674,-5.7049,-5.7059,-5.7067,-5.7152,-5.717,-5.7186,0,0,0,0,0,-5.6406,-5.651,-5.6491,-5.6511,-5.661,-5.6695,-5.6707,-5.6698,-5.6649,-5.6699,-5.6711,-5.6676,-5.6844,-5.6788,-5.6807,-5.6876,-5.7045,-5.7056,-5.7066,-5.7144,-5.7166,-5.7185,0,0,0,0,0,0,-5.6478,-5.6514,-5.6494,-5.6613,-5.6652,-5.6684,-5.6746,-5.6721,-5.6773,-5.6763,-5.6748,-5.6757,-5.6864,-5.6881,-5.6818,-5.7005,-5.6937,-5.6951,-5.6989,-5.701,-5.7027,-5.7019,-5.6746,0,0,0,0,0,-5.6509,-5.6576,-5.6603,-5.6706,-5.6727,-5.6734,-5.677,-5.676,-5.6798,-5.6814,-5.6833,-5.6871,-5.6932,-5.6973,-5.703,-5.7155,-5.7162,-5.7213,-5.723,-5.7243,-5.7255,-5.7322,-5.7344,-5.7106,-5.7106,-5.7106,0,0,-5.6571,-5.6599,-5.6642,-5.6721,-5.675,-5.6818,-5.6747,-5.6823,-5.6873,-5.6825,-5.6921,-5.6938,-5.6979,-5.7093,-5.7144,-5.711,-5.7323,-5.7257,-5.7267,-5.7272,-5.7335,-5.7357,-5.7377,-5.7113,-5.7112,-5.7111,0,0,-5.6719,-5.6748,-5.6836,-5.6868,-5.6912,-5.6917,-5.6939,-5.6975,-5.6984,-5.7082,-5.7047,-5.7107,-5.7213,-5.7244,-5.7273,-5.7437,-5.7405,-5.7456,-5.7543,-5.7608,-5.7627,-5.7643,-5.7699,-5.772,-5.7469,-5.7469,-5.7469,0,-5.679,-5.6893,-5.6885,-5.6964,-5.6999,-5.6961,-5.705,-5.708,-5.7141,-5.7166,-5.7128,-5.7261,-5.7286,-5.7406,-5.7446,-5.7472,-5.7495,-5.745,-5.7625,-5.7641,-5.7657,-5.771,-5.7732,-5.7475,-5.7474,-5.7474,-5.7473,0,-5.6978,-5.7051,-5.7116,-5.7178,-5.7221,-5.7305,-5.7308,-5.7353,-5.734,-5.7348,-5.7448,-5.7478,-5.754,-5.7569,-5.7556,-5.7688,-5.7665,-5.7627,-5.7557,-5.7685,-5.7735,-5.7756,-5.7483,-5.7481,-5.7479,-5.7478,0,0,-5.717,-5.7229,-5.7252,-5.728,-5.7328,-5.7383,-5.7466,-5.7529,-5.7567,-5.7612,-5.7679,-5.7771,-5.7736,-5.777,-5.7761,-5.7819,-5.7944,-5.7773,-5.7773,-5.7801,-5.8089,-5.8116,-5.814,-5.7926,-5.7929,-5.7933,-5.8085,0,-5.7319,-5.7463,-5.7458,-5.7592,-5.7658,-5.7624,-5.7696,-5.7733,-5.7744,-5.7801,-5.7813,-5.7878,-5.7828,-5.7848,-5.7904,-5.7917,-5.8001,-5.7907,-5.7986,-5.7989,-5.7973,-5.8166,-5.8194,-5.8336,-5.8105,-5.8108,-5.811,0,-5.751,-5.7563,-5.7704,-5.7743,-5.7771,-5.7835,-5.7893,-5.7949,-5.799,-5.7994,-5.8034,-5.8016,-5.8098,-5.803,-5.8143,-5.8078,-5.8111,-5.8123,-5.8128,-5.8132,-5.8055,-5.8173,-5.8381,-5.8401,-5.8142,-5.8139,-5.8137,0,-5.7634,-5.774,-5.7838,-5.7863,-5.7912,-5.7958,-5.798,-5.8018,-5.8056,-5.8107,-5.8132,-5.8192,-5.8223,-5.827,-5.8268,-5.8219,-5.8382,-5.8314,-5.8386,-5.8386,-5.8418,-5.8415,-5.8632,-5.8445,-5.8445,-5.8444,-5.8444,0,-5.7798,-5.7885,-5.7894,-5.7953,-5.8049,-5.8045,-5.8139,-5.8157,-5.8192,-5.8254,-5.8229,-5.8288,-5.8284,-5.8343,-5.8343,-5.8436,-5.8451,-5.8455,-5.8453,-5.8456,-5.8455,-5.8474,-5.8463,-5.845,-5.8449,-5.8448,-5.8447,0,-5.795,-5.796,-5.8064,-5.8103,-5.8115,-5.8184,-5.8217,-5.8273,-5.8284,-5.8363,-5.8381,-5.8396,-5.8465,-5.847,-5.8549,-5.8549,-5.866,-5.8649,-5.8646,-5.8643,-5.8714,-5.8706,-5.8948,-5.8978,-5.8775,-5.8777,-5.8778,0,-5.8052,-5.8118,-5.8166,-5.8206,-5.8232,-5.8298,-5.8337,-5.8336,-5.8378,-5.8432,-5.8482,-5.8549,-5.8601,-5.8713,-5.873,-5.8791,-5.8779,-5.886,-5.8787,-5.8788,-5.8777,-5.8772,-5.8778,-5.8872,-5.8875,-5.8877,-5.8878,0,-5.8232,-5.8235,-5.8293,-5.8355,-5.8404,-5.8452,-5.8497,-5.8531,-5.8535,-5.8584,-5.8655,-5.8696,-5.8778,-5.8844,-5.8904,-5.8926,-5.8902,-5.8902,-5.8921,-5.8922,-5.8916,-5.8918,-5.8681,-5.8895,-5.8893,-5.8892,-5.8891,-5.889,-5.836,-5.8417,-5.846,-5.8527,-5.8561,-5.8604,-5.8659,-5.8678,-5.8737,-5.8804,-5.8801,-5.8879,-5.892,-5.8998,-5.9025,-5.9085,-5.9057,-5.9086,-5.9093,-5.9099,-5.9105,-5.891,-5.9096,-5.9096,-5.9096,-5.9095,-5.9095,0,-5.8536,-5.8563,-5.8625,-5.869,-5.8742,-5.872,-5.8768,-5.8813,-5.8883,-5.8924,-5.8978,-5.9059,-5.9124,-5.9148,-5.9211,-5.9255,-5.9246,-5.9271,-5.9266,-5.9271,-5.9128,-5.9103,-5.9277,-5.9277,-5.9277,-5.9277,-5.9277,-5.9277,-5.8634,-5.8729,-5.8737,-5.8849,-5.8875,-5.8953,-5.8982,-5.9022,-5.9055,-5.9147,-5.9202,-5.9218,-5.9253,-5.9318,-5.9377,-5.9382,-5.9405,-5.9434,-5.9435,-5.93,-5.9281,-5.9263,-5.924,-5.944,-5.9441,-5.9573,-5.9574,-5.9575]},{"header":{"parameterUnit":"m.s-1","parameterCategory":1,"la1":30.2991,"la2":30.254,"lo1":-89.0895,"lo2":-89.0444,"dy":0.0017,"dx":0.0017,"nx":28,"ny":28,"refTime":"2024-03-14T21:00:00:Z","depth":0,"parameterNumber":3,"parameterNumberName":"V-component_of_WINDS"},"data":[0,0,0,0,0,0,0,0,0,0,0,0,0,0,0,0,0,0,0,0,0,0,0,0,0,0,0,0,0,0,0,0,0,0,0,0,0,0,0,0,0,0,0,0,0,0,0,0,0,0,0,0,0,0,0,0,0,0,2.6488,2.6488,0,2.6478,2.6477,2.6477,2.6475,2.6475,2.6475,2.6476,2.6458,2.6458,2.6457,0,0,0,0,0,0,0,0,0,0,0,0,0,2.6502,2.6502,2.6488,2.6488,2.6488,2.6478,2.6477,2.6477,2.6475,2.6475,2.6475,2.6476,2.6459,2.6458,2.6457,0,0,0,0,0,0,0,0,0,0,0,0,0,2.6494,2.6502,2.6488,2.6486,2.6485,2.6478,2.6477,2.6477,2.6475,2.6475,2.6476,2.6476,2.6459,2.6458,2.6457,2.6449,0,0,2.6455,2.6454,0,0,0,0,0,0,0,0,2.6495,2.6493,2.6486,2.6486,2.6485,2.6478,2.6476,2.6467,2.6475,2.6479,2.6476,2.6476,2.6464,2.6463,2.6461,2.6448,2.6447,2.6454,2.6454,2.6454,2.6453,0,0,0,0,0,0,0,2.6495,2.6494,2.6484,2.6486,2.6486,2.6484,2.6483,2.6474,2.6471,2.6479,2.6478,2.6478,2.6464,2.6461,2.646,2.6447,2.6454,2.6454,2.6453,2.6453,2.643,2.643,0,0,0,0,0,0,2.6497,2.6494,2.6484,2.6483,2.6491,2.6483,2.6482,2.648,2.6471,2.647,2.6477,2.6478,2.6463,2.6461,2.6459,2.6451,2.6454,2.6453,2.6452,2.643,2.643,2.643,0,0,0,0,0,0,2.6497,2.6496,2.6484,2.6489,2.6487,2.6483,2.6481,2.648,2.6477,2.647,2.6469,2.6476,2.6463,2.6461,2.6453,2.645,2.6452,2.6452,2.643,2.643,2.643,2.6433,0,0,0,0,0,0,2.6498,2.6496,2.6493,2.6489,2.6487,2.6479,2.648,2.648,2.6476,2.6476,2.6468,2.6467,2.6463,2.6454,2.6452,2.6449,2.6451,2.643,2.643,2.643,2.6433,2.6433,2.6433,0,0,0,0,0,2.6498,2.6492,2.6493,2.6492,2.6484,2.6479,2.6477,2.6475,2.6476,2.6473,2.6469,2.6467,2.6451,2.6453,2.6451,2.6448,2.6431,2.643,2.643,2.6433,2.6433,2.6433,0,0,0,0,0,0,2.6493,2.6492,2.6493,2.6486,2.6483,2.6478,2.6474,2.6474,2.6469,2.6469,2.6464,2.6462,2.6455,2.645,2.6453,2.6441,2.6441,2.644,2.6444,2.6443,2.6443,2.6444,2.645,0,0,0,0,0,2.6492,2.649,2.6487,2.6482,2.6481,2.6478,2.6475,2.6474,2.647,2.6468,2.6463,2.6457,2.6452,2.6447,2.6441,2.6433,2.6431,2.643,2.643,2.643,2.6429,2.6426,2.6425,2.6429,2.6429,2.6429,0,0,2.6488,2.6487,2.6485,2.6481,2.6478,2.6475,2.6476,2.6472,2.6469,2.6466,2.6459,2.6456,2.645,2.6442,2.6438,2.6438,2.6428,2.6429,2.6429,2.6428,2.6425,2.6425,2.6425,2.6429,2.6429,2.6429,0,0,2.648,2.6479,2.6475,2.6474,2.6471,2.647,2.647,2.6466,2.6465,2.6459,2.6457,2.6453,2.6442,2.6439,2.6435,2.643,2.6428,2.6428,2.6427,2.6424,2.6424,2.6424,2.6423,2.6422,2.6427,2.6427,2.6427,0,2.6474,2.6471,2.6472,2.6469,2.6468,2.6469,2.6465,2.6463,2.6457,2.6456,2.6456,2.6446,2.6441,2.6434,2.6433,2.643,2.6429,2.6428,2.6424,2.6424,2.6424,2.6423,2.6422,2.6428,2.6428,2.6428,2.6428,0,2.6465,2.6463,2.646,2.6459,2.6457,2.6453,2.6453,2.6451,2.6451,2.645,2.6445,2.644,2.6434,2.6433,2.6431,2.6426,2.6426,2.6426,2.6425,2.6423,2.6422,2.6422,2.6428,2.6428,2.6428,2.6428,0,0,2.645,2.6454,2.6452,2.6453,2.6452,2.645,2.6447,2.6444,2.6443,2.644,2.6437,2.643,2.6431,2.6428,2.6426,2.6424,2.6422,2.6424,2.6423,2.6424,2.6417,2.6417,2.6417,2.6421,2.6421,2.6421,2.6418,0,2.6442,2.6439,2.6442,2.6438,2.6436,2.6439,2.6437,2.6435,2.6435,2.6433,2.6432,2.6427,2.6428,2.6427,2.6425,2.6422,2.642,2.6422,2.6417,2.6417,2.6419,2.6416,2.6415,2.6413,2.6417,2.6417,2.6417,0,2.6431,2.6432,2.6429,2.6432,2.6431,2.6429,2.6428,2.6426,2.6426,2.6426,2.6424,2.6424,2.6421,2.6422,2.6417,2.6419,2.6418,2.6417,2.6416,2.6415,2.6416,2.6415,2.6411,2.6411,2.6416,2.6416,2.6416,0,2.6422,2.6422,2.6421,2.6421,2.6424,2.6423,2.6423,2.6423,2.6423,2.6422,2.6421,2.6419,2.6417,2.6415,2.6414,2.6415,2.641,2.6411,2.641,2.641,2.6407,2.6407,2.6404,2.6407,2.6407,2.6407,2.6407,0,2.6412,2.641,2.6417,2.6416,2.6414,2.6418,2.6415,2.6416,2.6417,2.6416,2.6417,2.6416,2.6415,2.6414,2.6413,2.641,2.6409,2.6408,2.6408,2.6408,2.6408,2.6406,2.6406,2.6407,2.6407,2.6407,2.6407,0,2.64,2.6405,2.6404,2.6409,2.641,2.6409,2.6412,2.6411,2.6413,2.6411,2.6411,2.6412,2.6411,2.6411,2.6408,2.6408,2.6404,2.6404,2.6405,2.6405,2.6404,2.6404,2.6399,2.6399,2.6402,2.6402,2.6402,0,2.6394,2.6393,2.6399,2.64,2.6402,2.6402,2.6403,2.6407,2.6407,2.6409,2.6408,2.6407,2.6407,2.6404,2.6404,2.6403,2.6402,2.6401,2.6402,2.6403,2.6403,2.6403,2.6403,2.64,2.64,2.64,2.64,0,2.6382,2.6385,2.6387,2.6391,2.6393,2.6395,2.6397,2.6397,2.6401,2.6401,2.6402,2.6402,2.6402,2.6401,2.6401,2.64,2.6401,2.64,2.64,2.6399,2.6401,2.6401,2.6405,2.64,2.64,2.64,2.64,2.64,2.6372,2.6373,2.6379,2.6381,2.6384,2.6387,2.6388,2.6391,2.6392,2.6394,2.6396,2.6397,2.6398,2.6398,2.6398,2.6398,2.6398,2.6397,2.6397,2.6397,2.6397,2.6402,2.6397,2.6397,2.6397,2.6397,2.6397,0,2.6361,2.6366,2.6369,2.6374,2.6377,2.6381,2.6384,2.6385,2.6387,2.6389,2.6391,2.6392,2.6392,2.6394,2.6395,2.6394,2.6395,2.6394,2.6394,2.6394,2.6396,2.6397,2.6394,2.6394,2.6394,2.6394,2.6394,2.6394,2.6355,2.6357,2.6362,2.6366,2.637,2.6373,2.6375,2.6377,2.638,2.6383,2.6384,2.6387,2.6389,2.639,2.6391,2.6392,2.6392,2.6391,2.6392,2.6393,2.6394,2.6394,2.6394,2.6391,2.6391,2.639,2.639,2.639]}]]